| time (UTC) | temp F | wind direction | speed MPH | gust MPH | rain 1hr in | rain 24hr in | rain mn in | humidity % | barometer mb |
| 20260903234706 | 78 | 316 | 1.0 | 9.0 | 0.00 | 0.00 | 0.00 | 29 | 1011.7 |
| 20260903234203 | 78 | 275 | 4.0 | 8.0 | 0.00 | 0.00 | 0.00 | 25 | 1011.6 |
| 20260903233658 | 78 | 309 | 2.0 | 9.0 | 0.00 | 0.00 | 0.00 | 26 | 1011.5 |
| 20260903233154 | 78 | 244 | 4.0 | 8.0 | 0.00 | 0.00 | 0.00 | 26 | 1011.4 |
| 20260903232653 | 78 | 254 | 4.0 | 8.0 | 0.00 | 0.00 | 0.00 | 25 | 1011.5 |
| 20260903232149 | 78 | 248 | 4.0 | 9.0 | 0.00 | 0.00 | 0.00 | 26 | 1011.5 |
| 20260903231648 | 79 | 270 | 7.0 | 11.0 | 0.00 | 0.00 | 0.00 | 26 | 1011.1 |
| 20260903231148 | 78 | 264 | 4.0 | 14.0 | 0.00 | 0.00 | 0.00 | 26 | 1011.5 |
| 20260903230644 | 79 | 272 | 2.0 | 9.0 | 0.00 | 0.00 | 0.00 | 27 | 1011.2 |
| 20260903230144 | 78 | 287 | 9.0 | 15.0 | 0.00 | 0.00 | 0.00 | 26 | 1011.4 |
| 20260903225640 | 79 | 317 | 8.0 | 13.0 | 0.00 | 0.00 | 0.00 | 26 | 1011.4 |
| 20260903225137 | 78 | 255 | 6.0 | 9.0 | 0.00 | 0.00 | 0.00 | 27 | 1011.4 |
| 20260903224632 | 78 | 266 | 6.0 | 14.0 | 0.00 | 0.00 | 0.00 | 27 | 1011.4 |
| 20260903224129 | 78 | 242 | 11.0 | 14.0 | 0.00 | 0.00 | 0.00 | 26 | 1011.4 |
| 20260903223624 | 78 | 261 | 4.0 | 15.0 | 0.00 | 0.00 | 0.00 | 28 | 1011.4 |
| 20260903223121 | 78 | 340 | 5.0 | 9.0 | 0.00 | 0.00 | 0.00 | 28 | 1011.5 |
| 20260903222617 | 78 | 246 | 9.0 | 16.0 | 0.00 | 0.00 | 0.00 | 27 | 1011.5 |
| 20260903222115 | 78 | 301 | 10.0 | 16.0 | 0.00 | 0.00 | 0.00 | 27 | 1011.1 |
| 20260903221611 | 78 | 234 | 10.0 | 17.0 | 0.00 | 0.00 | 0.00 | 27 | 1011.4 |
| 20260903221109 | 78 | 235 | 8.0 | 11.0 | 0.00 | 0.00 | 0.00 | 27 | 1011.2 |
| 20260903220609 | 78 | 220 | 7.0 | 19.0 | 0.00 | 0.00 | 0.00 | 27 | 1011.2 |
| 20260903220108 | 79 | 267 | 9.0 | 13.0 | 0.00 | 0.00 | 0.00 | 27 | 1011.0 |
| 20260903215607 | 78 | 275 | 9.0 | 16.0 | 0.00 | 0.00 | 0.00 | 28 | 1011.0 |
| 20260903215102 | 78 | 215 | 11.0 | 15.0 | 0.00 | 0.00 | 0.00 | 27 | 1010.9 |
| 20260903214601 | 78 | 255 | 10.0 | 15.0 | 0.00 | 0.00 | 0.00 | 27 | 1011.0 |
| 20260903214056 | 78 | 293 | 10.0 | 15.0 | 0.00 | 0.00 | 0.00 | 27 | 1010.9 |
| 20260903213552 | 78 | 255 | 7.0 | 13.0 | 0.00 | 0.00 | 0.00 | 28 | 1010.9 |
| 20260903213047 | 78 | 240 | 10.0 | 16.0 | 0.00 | 0.00 | 0.00 | 28 | 1010.9 |
| 20260903212543 | 78 | 292 | 8.0 | 14.0 | 0.00 | 0.00 | 0.00 | 27 | 1010.8 |
| 20260903212038 | 78 | 249 | 11.0 | 18.0 | 0.00 | 0.00 | 0.00 | 28 | 1010.8 |
| 20260903211533 | 78 | 231 | 11.0 | 19.0 | 0.00 | 0.00 | 0.00 | 28 | 1010.7 |
| 20260903211030 | 79 | 265 | 7.0 | 15.0 | 0.00 | 0.00 | 0.00 | 28 | 1010.8 |
| 20260903210530 | 79 | 243 | 12.0 | 18.0 | 0.00 | 0.00 | 0.00 | 28 | 1010.7 |
| 20260903210027 | 79 | 257 | 5.0 | 15.0 | 0.00 | 0.00 | 0.00 | 28 | 1010.8 |
| 20260903205525 | 78 | 223 | 10.0 | 13.0 | 0.00 | 0.00 | 0.00 | 28 | 1010.8 |
| 20260903205020 | 78 | 221 | 8.0 | 14.0 | 0.00 | 0.00 | 0.00 | 28 | 1010.7 |
| 20260903204516 | 78 | 274 | 6.0 | 18.0 | 0.00 | 0.00 | 0.00 | 29 | 1010.9 |
| 20260903204011 | 78 | 287 | 9.0 | 19.0 | 0.00 | 0.00 | 0.00 | 28 | 1010.8 |
| 20260903203507 | 77 | 244 | 13.0 | 26.0 | 0.00 | 0.00 | 0.00 | 28 | 1010.9 |
| 20260903203006 | 77 | 241 | 10.0 | 13.0 | 0.00 | 0.00 | 0.00 | 29 | 1010.8 |
| 20260903202503 | 78 | 236 | 17.0 | 23.0 | 0.00 | 0.00 | 0.00 | 28 | 1010.9 |
| 20260903201957 | 77 | 234 | 15.0 | 21.0 | 0.00 | 0.00 | 0.00 | 28 | 1010.8 |
| 20260903201452 | 78 | 222 | 15.0 | 24.0 | 0.00 | 0.00 | 0.00 | 29 | 1010.9 |
| 20260903200951 | 78 | 237 | 12.0 | 19.0 | 0.00 | 0.00 | 0.00 | 28 | 1011.0 |
| 20260903200447 | 77 | 230 | 9.0 | 24.0 | 0.00 | 0.00 | 0.00 | 29 | 1010.9 |
| 20260903195941 | 77 | 240 | 13.0 | 21.0 | 0.00 | 0.00 | 0.00 | 29 | 1010.9 |
| 20260903195438 | 78 | 240 | 9.0 | 13.0 | 0.00 | 0.00 | 0.00 | 30 | 1010.8 |
| 20260903194937 | 77 | 245 | 6.0 | 15.0 | 0.00 | 0.00 | 0.00 | 31 | 1011.0 |
| 20260903194433 | 78 | 232 | 13.0 | 19.0 | 0.00 | 0.00 | 0.00 | 29 | 1011.0 |
| 20260903193928 | 77 | 249 | 11.0 | 15.0 | 0.00 | 0.00 | 0.00 | 30 | 1010.8 |
| 20260903193425 | 77 | 230 | 13.0 | 17.0 | 0.00 | 0.00 | 0.00 | 30 | 1011.0 |
| 20260903192919 | 76 | 231 | 8.0 | 15.0 | 0.00 | 0.00 | 0.00 | 31 | 1010.9 |
| 20260903192416 | 78 | 245 | 7.0 | 22.0 | 0.00 | 0.00 | 0.00 | 31 | 1010.8 |
| 20260903191912 | 78 | 219 | 9.0 | 15.0 | 0.00 | 0.00 | 0.00 | 30 | 1010.9 |
| 20260903191408 | 76 | 248 | 9.0 | 14.0 | 0.00 | 0.00 | 0.00 | 30 | 1010.9 |
| 20260903190907 | 77 | 251 | 7.0 | 11.0 | 0.00 | 0.00 | 0.00 | 31 | 1010.8 |
| 20260903190401 | 77 | 263 | 5.0 | 13.0 | 0.00 | 0.00 | 0.00 | 32 | 1010.9 |
| 20260903185901 | 74 | 236 | 6.0 | 9.0 | 0.00 | 0.00 | 0.00 | 33 | 1010.8 |
| 20260903185356 | 75 | 269 | 6.0 | 11.0 | 0.00 | 0.00 | 0.00 | 32 | 1011.0 |
| 20260903184852 | 75 | 251 | 11.0 | 14.0 | 0.00 | 0.00 | 0.00 | 33 | 1010.8 |
| 20260903184349 | 75 | 292 | 5.0 | 19.0 | 0.00 | 0.00 | 0.00 | 32 | 1011.1 |
| 20260903183848 | 74 | 306 | 9.0 | 18.0 | 0.00 | 0.00 | 0.00 | 33 | 1011.0 |
| 20260903183343 | 75 | 284 | 10.0 | 15.0 | 0.00 | 0.00 | 0.00 | 32 | 1011.0 |
| 20260903182843 | 75 | 258 | 12.0 | 14.0 | 0.00 | 0.00 | 0.00 | 32 | 1010.9 |
| 20260903182342 | 75 | 217 | 16.0 | 21.0 | 0.00 | 0.00 | 0.00 | 31 | 1011.0 |
| 20260903181837 | 74 | 256 | 8.0 | 16.0 | 0.00 | 0.00 | 0.00 | 32 | 1010.9 |
| 20260903181332 | 75 | 240 | 7.0 | 13.0 | 0.00 | 0.00 | 0.00 | 33 | 1011.1 |
| 20260903180831 | 75 | 242 | 12.0 | 16.0 | 0.00 | 0.00 | 0.00 | 33 | 1010.9 |
| 20260903180326 | 74 | 255 | 5.0 | 18.0 | 0.00 | 0.00 | 0.00 | 34 | 1011.2 |
| 20260903175825 | 73 | 262 | 7.0 | 14.0 | 0.00 | 0.00 | 0.00 | 33 | 1011.0 |
| 20260903175325 | 74 | 239 | 9.0 | 18.0 | 0.00 | 0.00 | 0.00 | 33 | 1010.9 |
| 20260903174820 | 73 | 206 | 7.0 | 14.0 | 0.00 | 0.00 | 0.00 | 34 | 1011.1 |
| 20260903174315 | 73 | 229 | 10.0 | 21.0 | 0.00 | 0.00 | 0.00 | 33 | 1011.4 |
| 20260903173814 | 74 | 254 | 12.0 | 21.0 | 0.00 | 0.00 | 0.00 | 33 | 1011.2 |
| 20260903173310 | 74 | 217 | 8.0 | 14.0 | 0.00 | 0.00 | 0.00 | 35 | 1011.2 |
| 20260903172806 | 73 | 230 | 8.0 | 15.0 | 0.00 | 0.00 | 0.00 | 35 | 1011.2 |
| 20260903172301 | 73 | 246 | 12.0 | 21.0 | 0.00 | 0.00 | 0.00 | 35 | 1011.1 |
| 20260903171755 | 73 | 235 | 11.0 | 21.0 | 0.00 | 0.00 | 0.00 | 34 | 1011.0 |
| 20260903171251 | 73 | 254 | 15.0 | 21.0 | 0.00 | 0.00 | 0.00 | 34 | 1011.1 |
| 20260903170750 | 73 | 201 | 13.0 | 15.0 | 0.00 | 0.00 | 0.00 | 35 | 1011.4 |
| 20260903170246 | 72 | 231 | 6.0 | 15.0 | 0.00 | 0.00 | 0.00 | 37 | 1011.4 |
| 20260903165743 | 71 | 266 | 13.0 | 17.0 | 0.00 | 0.00 | 0.00 | 36 | 1011.4 |
| 20260903165238 | 71 | 240 | 7.0 | 11.0 | 0.00 | 0.00 | 0.00 | 39 | 1011.4 |
| 20260903164733 | 69 | 229 | 5.0 | 8.0 | 0.00 | 0.00 | 0.00 | 43 | 1011.4 |
| 20260903164229 | 68 | 253 | 3.0 | 6.0 | 0.00 | 0.00 | 0.00 | 47 | 1011.2 |
| 20260903163728 | 67 | 179 | 1.0 | 3.0 | 0.00 | 0.00 | 0.00 | 52 | 1011.5 |
| 20260903163225 | 65 | 193 | 0.0 | 3.0 | 0.00 | 0.00 | 0.00 | 55 | 1011.6 |
| 20260903162721 | 64 | 231 | 1.0 | 4.0 | 0.00 | 0.00 | 0.00 | 54 | 1011.5 |
| 20260903162217 | 63 | 102 | 4.0 | 4.0 | 0.00 | 0.00 | 0.00 | 56 | 1011.4 |
| 20260903161712 | 62 | 71 | 4.0 | 4.0 | 0.00 | 0.00 | 0.00 | 58 | 1011.2 |
| 20260903161208 | 61 | 70 | 1.0 | 3.0 | 0.00 | 0.00 | 0.00 | 60 | 1011.1 |
| 20260903160703 | 60 | 168 | 2.0 | 4.0 | 0.00 | 0.00 | 0.00 | 62 | 1011.4 |
| 20260903160156 | 60 | 136 | 2.0 | 6.0 | 0.00 | 0.00 | 0.00 | 65 | 1011.2 |
| 20260903155655 | 61 | 108 | 2.0 | 3.0 | 0.00 | 0.00 | 0.00 | 63 | 1011.6 |
| 20260903155150 | 62 | 130 | 1.0 | 2.0 | 0.00 | 0.00 | 0.00 | 57 | 1011.4 |
| 20260903154646 | 60 | 240 | 0.0 | 0.0 | 0.00 | 0.00 | 0.00 | 62 | 1011.5 |
| 20260903154142 | 57 | 249 | 0.0 | 1.0 | 0.00 | 0.00 | 0.00 | 66 | 1011.6 |
| 20260903153638 | 54 | 239 | 0.0 | 0.0 | 0.00 | 0.00 | 0.00 | 72 | 1011.6 |
| 20260903153133 | 53 | 219 | 0.0 | 0.0 | 0.00 | 0.00 | 0.00 | 73 | 1011.5 |
| 20260903152629 | 53 | 200 | 0.0 | 1.0 | 0.00 | 0.00 | 0.00 | 73 | 1011.4 |
| 20260903152125 | 53 | 244 | 0.0 | 0.0 | 0.00 | 0.00 | 0.00 | 72 | 1011.6 |
| 20260903151624 | 53 | 225 | 2.0 | 2.0 | 0.00 | 0.00 | 0.00 | 73 | 1011.7 |
| 20260903151120 | 53 | 209 | 2.0 | 3.0 | 0.00 | 0.00 | 0.00 | 74 | 1011.6 |
| 20260903150620 | 54 | 236 | 2.0 | 2.0 | 0.00 | 0.00 | 0.00 | 74 | 1011.4 |
| 20260903150115 | 54 | 252 | 2.0 | 3.0 | 0.00 | 0.00 | 0.00 | 72 | 1011.5 |
| 20260903145614 | 53 | 252 | 2.0 | 2.0 | 0.00 | 0.00 | 0.00 | 72 | 1011.6 |
| 20260903145109 | 53 | 251 | 2.0 | 2.0 | 0.00 | 0.00 | 0.00 | 73 | 1011.4 |
| 20260903144608 | 53 | 264 | 0.0 | 3.0 | 0.00 | 0.00 | 0.00 | 73 | 1011.5 |
| 20260903144105 | 53 | 273 | 0.0 | 0.0 | 0.00 | 0.00 | 0.00 | 74 | 1011.4 |
| 20260903143601 | 53 | 277 | 0.0 | 2.0 | 0.00 | 0.00 | 0.00 | 74 | 1011.4 |
| 20260903143056 | 52 | 279 | 1.0 | 3.0 | 0.00 | 0.00 | 0.00 | 74 | 1011.6 |
| 20260903142551 | 52 | 262 | 2.0 | 3.0 | 0.00 | 0.00 | 0.00 | 75 | 1011.6 |
| 20260903142048 | 51 | 278 | 1.0 | 3.0 | 0.00 | 0.00 | 0.00 | 76 | 1011.6 |
| 20260903141543 | 51 | 269 | 2.0 | 4.0 | 0.00 | 0.00 | 0.00 | 76 | 1011.4 |
| 20260903141038 | 50 | 269 | 2.0 | 2.0 | 0.00 | 0.00 | 0.00 | 78 | 1011.6 |
| 20260903140534 | 50 | 276 | 1.0 | 3.0 | 0.00 | 0.00 | 0.00 | 78 | 1011.4 |
| 20260903140035 | 49 | 287 | 1.0 | 2.0 | 0.00 | 0.00 | 0.00 | 78 | 1011.6 |
| 20260903135530 | 49 | 304 | 1.0 | 3.0 | 0.00 | 0.00 | 0.00 | 78 | 1011.2 |
| 20260903135025 | 49 | 341 | 2.0 | 2.0 | 0.00 | 0.00 | 0.00 | 77 | 1011.2 |
| 20260903134524 | 48 | 340 | 2.0 | 3.0 | 0.00 | 0.00 | 0.00 | 77 | 1011.4 |
| 20260903134020 | 48 | 310 | 0.0 | 0.0 | 0.00 | 0.00 | 0.00 | 78 | 1011.2 |
| 20260903133518 | 48 | 322 | 0.0 | 0.0 | 0.00 | 0.00 | 0.00 | 79 | 1011.1 |
| 20260903133013 | 47 | 324 | 0.0 | 0.0 | 0.00 | 0.00 | 0.00 | 80 | 1011.2 |
| 20260903132508 | 47 | 322 | 1.0 | 1.0 | 0.00 | 0.00 | 0.00 | 78 | 1011.0 |
| 20260903132003 | 47 | 332 | 0.0 | 0.0 | 0.00 | 0.00 | 0.00 | 78 | 1010.9 |
| 20260903131458 | 47 | 42 | 0.0 | 0.0 | 0.00 | 0.00 | 0.00 | 79 | 1010.8 |
| 20260903130956 | 46 | 50 | 0.0 | 0.0 | 0.00 | 0.00 | 0.00 | 80 | 1010.6 |
| 20260903130452 | 45 | 47 | 0.0 | 0.0 | 0.00 | 0.00 | 0.00 | 83 | 1010.8 |
| 20260903125951 | 46 | 54 | 0.0 | 0.0 | 0.00 | 0.00 | 0.00 | 81 | 1010.7 |
| 20260903125450 | 46 | 66 | 0.0 | 0.0 | 0.00 | 0.00 | 0.00 | 80 | 1010.8 |
| 20260903124951 | 46 | 80 | 2.0 | 2.0 | 0.00 | 0.00 | 0.00 | 80 | 1010.7 |
| 20260903124446 | 47 | 74 | 2.0 | 3.0 | 0.00 | 0.00 | 0.00 | 79 | 1010.5 |
| 20260903123945 | 47 | 83 | 2.0 | 2.0 | 0.00 | 0.00 | 0.00 | 78 | 1010.6 |
| 20260903123439 | 48 | 108 | 2.0 | 4.0 | 0.00 | 0.00 | 0.00 | 76 | 1010.5 |
| 20260903122939 | 49 | 258 | 0.0 | 2.0 | 0.00 | 0.00 | 0.00 | 73 | 1010.4 |
| 20260903122439 | 48 | 260 | 2.0 | 2.0 | 0.00 | 0.00 | 0.00 | 75 | 1010.0 |
| 20260903121938 | 48 | 281 | 0.0 | 0.0 | 0.00 | 0.00 | 0.00 | 75 | 1010.2 |
| 20260903121438 | 48 | 281 | 0.0 | 0.0 | 0.00 | 0.00 | 0.00 | 74 | 1010.2 |
| 20260903120934 | 49 | 299 | 0.0 | 0.0 | 0.00 | 0.00 | 0.00 | 74 | 1010.4 |
| 20260903120433 | 49 | 279 | 0.0 | 0.0 | 0.00 | 0.00 | 0.00 | 74 | 1010.3 |
| 20260903115931 | 50 | 280 | 0.0 | 2.0 | 0.00 | 0.00 | 0.00 | 73 | 1010.3 |
| 20260903115431 | 51 | 263 | 1.0 | 2.0 | 0.00 | 0.00 | 0.00 | 70 | 1010.3 |
| 20260903114927 | 51 | 234 | 3.0 | 3.0 | 0.00 | 0.00 | 0.00 | 68 | 1010.4 |
| 20260903114422 | 51 | 251 | 3.0 | 3.0 | 0.00 | 0.00 | 0.00 | 68 | 1010.5 |
| 20260903113918 | 51 | 272 | 3.0 | 3.0 | 0.00 | 0.00 | 0.00 | 69 | 1010.4 |
| 20260903113413 | 52 | 225 | 3.0 | 3.0 | 0.00 | 0.00 | 0.00 | 66 | 1010.4 |
| 20260903112909 | 52 | 257 | 0.0 | 0.0 | 0.00 | 0.00 | 0.00 | 66 | 1010.6 |
| 20260903112404 | 52 | 275 | 2.0 | 2.0 | 0.00 | 0.00 | 0.00 | 65 | 1010.4 |
| 20260903111903 | 51 | 250 | 0.0 | 0.0 | 0.00 | 0.00 | 0.00 | 69 | 1010.3 |
| 20260903111403 | 51 | 255 | 2.0 | 2.0 | 0.00 | 0.00 | 0.00 | 69 | 1010.4 |
| 20260903110859 | 49 | 307 | 2.0 | 2.0 | 0.00 | 0.00 | 0.00 | 73 | 1010.4 |
| 20260903110354 | 51 | 292 | 2.0 | 3.0 | 0.00 | 0.00 | 0.00 | 69 | 1010.6 |
| 20260903105849 | 49 | 233 | 0.0 | 0.0 | 0.00 | 0.00 | 0.00 | 71 | 1010.4 |
| 20260903105345 | 48 | 182 | 0.0 | 2.0 | 0.00 | 0.00 | 0.00 | 73 | 1010.5 |
| 20260903104844 | 49 | 300 | 0.0 | 0.0 | 0.00 | 0.00 | 0.00 | 73 | 1010.6 |
| 20260903104339 | 49 | 339 | 2.0 | 3.0 | 0.00 | 0.00 | 0.00 | 72 | 1010.6 |
| 20260903103836 | 49 | 231 | 0.0 | 0.0 | 0.00 | 0.00 | 0.00 | 72 | 1010.3 |
| 20260903103332 | 50 | 228 | 1.0 | 2.0 | 0.00 | 0.00 | 0.00 | 71 | 1010.3 |
| 20260903102827 | 50 | 224 | 1.0 | 1.0 | 0.00 | 0.00 | 0.00 | 70 | 1010.4 |
| 20260903102327 | 51 | 220 | 1.0 | 2.0 | 0.00 | 0.00 | 0.00 | 68 | 1010.2 |
| 20260903101827 | 52 | 221 | 3.0 | 4.0 | 0.00 | 0.00 | 0.00 | 67 | 1010.2 |
| 20260903101322 | 52 | 239 | 4.0 | 6.0 | 0.00 | 0.00 | 0.00 | 65 | 1010.2 |
| 20260903100818 | 53 | 237 | 3.0 | 3.0 | 0.00 | 0.00 | 0.00 | 64 | 1010.3 |
| 20260903100317 | 52 | 252 | 2.0 | 4.0 | 0.00 | 0.00 | 0.00 | 66 | 1010.5 |
| 20260903095815 | 50 | 285 | 3.0 | 4.0 | 0.00 | 0.00 | 0.00 | 69 | 1010.2 |
| 20260903095309 | 49 | 341 | 4.0 | 4.0 | 0.00 | 0.00 | 0.00 | 71 | 1010.2 |
| 20260903094804 | 49 | 333 | 2.0 | 3.0 | 0.00 | 0.00 | 0.00 | 71 | 1009.9 |
| 20260903094259 | 51 | 301 | 1.0 | 2.0 | 0.00 | 0.00 | 0.00 | 67 | 1009.8 |
| 20260903093754 | 51 | 261 | 0.0 | 2.0 | 0.00 | 0.00 | 0.00 | 68 | 1009.7 |
| 20260903093250 | 50 | 251 | 1.0 | 1.0 | 0.00 | 0.00 | 0.00 | 68 | 1009.8 |
| 20260903092749 | 50 | 242 | 0.0 | 1.0 | 0.00 | 0.00 | 0.00 | 69 | 1009.9 |
| 20260903092244 | 50 | 189 | 4.0 | 4.0 | 0.00 | 0.00 | 0.00 | 69 | 1009.9 |
| 20260903091743 | 50 | 181 | 3.0 | 4.0 | 0.00 | 0.00 | 0.00 | 71 | 1009.7 |
| 20260903091238 | 50 | 231 | 0.0 | 1.0 | 0.00 | 0.00 | 0.00 | 70 | 1010.0 |
| 20260903090733 | 51 | 245 | 2.0 | 3.0 | 0.00 | 0.00 | 0.00 | 68 | 1009.9 |
| 20260903090232 | 51 | 247 | 3.0 | 7.0 | 0.00 | 0.00 | 0.00 | 68 | 1009.9 |
| 20260903085731 | 49 | 242 | 3.0 | 7.0 | 0.00 | 0.00 | 0.00 | 71 | 1009.8 |
| 20260903085226 | 49 | 238 | 0.0 | 0.0 | 0.00 | 0.00 | 0.00 | 72 | 1009.9 |
| 20260903084724 | 49 | 216 | 0.0 | 0.0 | 0.00 | 0.00 | 0.00 | 71 | 1009.8 |
| 20260903084219 | 49 | 196 | 0.0 | 2.0 | 0.00 | 0.00 | 0.00 | 71 | 1010.0 |
| 20260903083715 | 50 | 267 | 0.0 | 2.0 | 0.00 | 0.00 | 0.00 | 70 | 1009.8 |
| 20260903083215 | 50 | 269 | 1.0 | 2.0 | 0.00 | 0.00 | 0.00 | 70 | 1009.8 |
| 20260903082714 | 50 | 290 | 0.0 | 0.0 | 0.00 | 0.00 | 0.00 | 70 | 1009.7 |
| 20260903082210 | 51 | 269 | 0.0 | 2.0 | 0.00 | 0.00 | 0.00 | 70 | 1009.7 |
| 20260903081710 | 50 | 261 | 0.0 | 0.0 | 0.00 | 0.00 | 0.00 | 69 | 1009.8 |
| 20260903081206 | 50 | 241 | 0.0 | 0.0 | 0.00 | 0.00 | 0.00 | 70 | 1010.0 |
| 20260903080702 | 50 | 220 | 0.0 | 0.0 | 0.00 | 0.00 | 0.00 | 70 | 1009.9 |
| 20260903080200 | 51 | 238 | 2.0 | 3.0 | 0.00 | 0.00 | 0.00 | 70 | 1009.8 |
| 20260903075658 | 50 | 238 | 4.0 | 6.0 | 0.00 | 0.00 | 0.00 | 70 | 1010.2 |
| 20260903075154 | 50 | 229 | 2.0 | 3.0 | 0.00 | 0.00 | 0.00 | 70 | 1009.9 |
| 20260903074653 | 50 | 239 | 0.0 | 3.0 | 0.00 | 0.00 | 0.00 | 70 | 1009.9 |
| 20260903074148 | 50 | 259 | 0.0 | 2.0 | 0.00 | 0.00 | 0.00 | 71 | 1009.9 |
| 20260903073643 | 51 | 273 | 0.0 | 2.0 | 0.00 | 0.00 | 0.00 | 71 | 1010.0 |
| 20260903073138 | 51 | 268 | 0.0 | 0.0 | 0.00 | 0.00 | 0.00 | 70 | 1010.0 |
| 20260903072634 | 52 | 265 | 0.0 | 0.0 | 0.00 | 0.00 | 0.00 | 69 | 1010.2 |
| 20260903072131 | 51 | 267 | 0.0 | 0.0 | 0.00 | 0.00 | 0.00 | 68 | 1010.2 |
| 20260903071627 | 52 | 270 | 0.0 | 0.0 | 0.00 | 0.00 | 0.00 | 68 | 1010.2 |
| 20260903071122 | 51 | 263 | 0.0 | 0.0 | 0.00 | 0.00 | 0.00 | 67 | 1010.3 |
| 20260903070622 | 50 | 314 | 2.0 | 3.0 | 0.00 | 0.00 | 0.00 | 72 | 1010.0 |
| 20260903070118 | 50 | 252 | 0.0 | 0.0 | 0.00 | 0.00 | 0.00 | 72 | 1010.2 |
| 20260903065617 | 49 | 244 | 1.0 | 4.0 | 0.00 | 0.00 | 0.00 | 75 | 1010.3 |
| 20260903065112 | 48 | 220 | 0.0 | 0.0 | 0.00 | 0.00 | 0.00 | 81 | 1009.9 |
| 20260903064612 | 48 | 192 | 0.0 | 3.0 | 0.00 | 0.00 | 0.00 | 80 | 1010.3 |
| 20260903064107 | 48 | 208 | 0.0 | 0.0 | 0.00 | 0.00 | 0.00 | 78 | 1010.2 |
| 20260903063602 | 49 | 190 | 0.0 | 2.0 | 0.00 | 0.00 | 0.00 | 75 | 1010.0 |
| 20260903063058 | 50 | 110 | 1.0 | 2.0 | 0.00 | 0.00 | 0.00 | 74 | 1010.2 |
| 20260903062553 | 50 | 79 | 0.0 | 0.0 | 0.00 | 0.00 | 0.00 | 74 | 1009.8 |
| 20260903062048 | 51 | 91 | 0.0 | 2.0 | 0.00 | 0.00 | 0.00 | 71 | 1010.0 |
| 20260903061544 | 50 | 205 | 0.0 | 0.0 | 0.00 | 0.00 | 0.00 | 69 | 1009.8 |
| 20260903061043 | 50 | 193 | 0.0 | 0.0 | 0.00 | 0.00 | 0.00 | 72 | 1009.8 |
| 20260903060543 | 49 | 123 | 2.0 | 4.0 | 0.00 | 0.00 | 0.00 | 75 | 1009.7 |
| 20260903060038 | 49 | 113 | 4.0 | 4.0 | 0.00 | 0.00 | 0.00 | 75 | 1009.7 |
| 20260903055536 | 50 | 106 | 1.0 | 3.0 | 0.00 | 0.07 | 0.07 | 73 | 1009.6 |
| 20260903055034 | 51 | 128 | 1.0 | 2.0 | 0.00 | 0.07 | 0.07 | 69 | 1009.9 |
| 20260903054530 | 51 | 193 | 0.0 | 0.0 | 0.00 | 0.07 | 0.07 | 69 | 1009.9 |
| 20260903054026 | 50 | 203 | 0.0 | 0.0 | 0.00 | 0.07 | 0.07 | 72 | 1010.4 |
| 20260903053525 | 51 | 212 | 0.0 | 0.0 | 0.00 | 0.07 | 0.07 | 74 | 1010.5 |
| 20260903053022 | 51 | 229 | 0.0 | 0.0 | 0.00 | 0.07 | 0.07 | 73 | 1010.5 |
| 20260903052518 | 51 | 215 | 0.0 | 0.0 | 0.00 | 0.07 | 0.07 | 72 | 1010.7 |
| 20260903052014 | 51 | 167 | 0.0 | 0.0 | 0.00 | 0.07 | 0.07 | 71 | 1010.6 |
| 20260903051514 | 52 | 120 | 2.0 | 3.0 | 0.00 | 0.07 | 0.07 | 72 | 1010.9 |
| 20260903051010 | 53 | 196 | 0.0 | 0.0 | 0.00 | 0.07 | 0.07 | 69 | 1011.0 |
| 20260903050508 | 53 | 238 | 0.0 | 1.0 | 0.00 | 0.07 | 0.07 | 68 | 1010.8 |
| 20260903050003 | 52 | 279 | 0.0 | 2.0 | 0.00 | 0.07 | 0.07 | 70 | 1010.8 |
| 20260903045458 | 51 | 274 | 2.0 | 3.0 | 0.00 | 0.07 | 0.07 | 73 | 1010.7 |
| 20260903044955 | 52 | 282 | 0.0 | 0.0 | 0.00 | 0.07 | 0.07 | 74 | 1010.7 |
| 20260903044450 | 51 | 277 | 1.0 | 1.0 | 0.00 | 0.07 | 0.07 | 75 | 1010.7 |
| 20260903043946 | 52 | 263 | 0.0 | 0.0 | 0.00 | 0.07 | 0.07 | 74 | 1010.8 |
| 20260903043442 | 53 | 264 | 0.0 | 0.0 | 0.00 | 0.07 | 0.07 | 72 | 1010.7 |
| 20260903042940 | 54 | 275 | 1.0 | 3.0 | 0.00 | 0.07 | 0.07 | 69 | 1011.1 |
| 20260903042436 | 54 | 258 | 0.0 | 3.0 | 0.00 | 0.07 | 0.07 | 68 | 1011.1 |
| 20260903041931 | 53 | 256 | 2.0 | 4.0 | 0.00 | 0.07 | 0.07 | 71 | 1011.1 |
| 20260903041428 | 53 | 231 | 3.0 | 3.0 | 0.00 | 0.07 | 0.07 | 71 | 1011.1 |
| 20260903040923 | 54 | 255 | 0.0 | 1.0 | 0.00 | 0.07 | 0.07 | 72 | 1011.0 |
| 20260903040422 | 54 | 243 | 0.0 | 0.0 | 0.00 | 0.07 | 0.07 | 70 | 1010.9 |
| 20260903035918 | 53 | 236 | 0.0 | 0.0 | 0.00 | 0.07 | 0.07 | 72 | 1011.0 |
| 20260903035414 | 54 | 226 | 0.0 | 0.0 | 0.00 | 0.07 | 0.07 | 71 | 1011.0 |
| 20260903034914 | 54 | 216 | 0.0 | 0.0 | 0.00 | 0.07 | 0.07 | 71 | 1010.9 |
| 20260903034409 | 53 | 217 | 0.0 | 0.0 | 0.00 | 0.07 | 0.07 | 72 | 1011.0 |
| 20260903033904 | 54 | 208 | 0.0 | 0.0 | 0.00 | 0.07 | 0.07 | 74 | 1010.8 |
| 20260903033359 | 55 | 211 | 0.0 | 0.0 | 0.00 | 0.07 | 0.07 | 72 | 1011.0 |
| 20260903032854 | 56 | 191 | 0.0 | 0.0 | 0.00 | 0.07 | 0.07 | 70 | 1010.9 |
| 20260903032350 | 56 | 279 | 0.0 | 0.0 | 0.00 | 0.07 | 0.07 | 71 | 1010.8 |
| 20260903031845 | 56 | 276 | 0.0 | 0.0 | 0.00 | 0.07 | 0.07 | 71 | 1011.0 |
| 20260903031344 | 56 | 278 | 0.0 | 1.0 | 0.00 | 0.07 | 0.07 | 70 | 1011.0 |
| 20260903030840 | 56 | 289 | 0.0 | 0.0 | 0.00 | 0.07 | 0.07 | 70 | 1011.2 |
| 20260903030336 | 56 | 272 | 0.0 | 2.0 | 0.00 | 0.07 | 0.07 | 71 | 1011.0 |
| 20260903025832 | 56 | 314 | 1.0 | 3.0 | 0.00 | 0.07 | 0.07 | 72 | 1010.7 |
| 20260903025327 | 55 | 230 | 0.0 | 0.0 | 0.00 | 0.07 | 0.07 | 74 | 1011.0 |
| 20260903024826 | 57 | 231 | 1.0 | 2.0 | 0.00 | 0.07 | 0.07 | 71 | 1011.0 |
| 20260903024326 | 58 | 274 | 0.0 | 0.0 | 0.00 | 0.07 | 0.07 | 67 | 1010.8 |
| 20260903023821 | 57 | 310 | 2.0 | 2.0 | 0.00 | 0.07 | 0.07 | 67 | 1010.6 |
| 20260903023317 | 57 | 303 | 0.0 | 0.0 | 0.00 | 0.07 | 0.07 | 68 | 1010.5 |
| 20260903022812 | 57 | 262 | 0.0 | 0.0 | 0.00 | 0.07 | 0.07 | 66 | 1010.3 |
| 20260903022311 | 58 | 268 | 0.0 | 0.0 | 0.00 | 0.07 | 0.07 | 65 | 1010.4 |
| 20260903021810 | 59 | 266 | 0.0 | 1.0 | 0.00 | 0.07 | 0.07 | 62 | 1010.3 |
| 20260903021306 | 59 | 274 | 0.0 | 0.0 | 0.00 | 0.07 | 0.07 | 60 | 1010.0 |
| 20260903020806 | 60 | 280 | 2.0 | 2.0 | 0.00 | 0.07 | 0.07 | 58 | 1010.4 |
| 20260903020301 | 61 | 295 | 2.0 | 4.0 | 0.00 | 0.07 | 0.07 | 56 | 1010.2 |
| 20260903015756 | 62 | 273 | 2.0 | 6.0 | 0.00 | 0.07 | 0.07 | 56 | 1010.4 |
| 20260903015252 | 62 | 323 | 5.0 | 7.0 | 0.00 | 0.07 | 0.07 | 55 | 1010.2 |
| 20260903014747 | 62 | 252 | 4.0 | 7.0 | 0.00 | 0.07 | 0.07 | 56 | 1010.6 |
| 20260903014246 | 63 | 256 | 7.0 | 10.0 | 0.00 | 0.07 | 0.07 | 55 | 1010.5 |
| 20260903013742 | 63 | 277 | 6.0 | 13.0 | 0.00 | 0.07 | 0.07 | 54 | 1010.5 |
| 20260903013240 | 63 | 222 | 7.0 | 9.0 | 0.00 | 0.07 | 0.07 | 55 | 1010.6 |
| 20260903012740 | 63 | 216 | 9.0 | 13.0 | 0.00 | 0.07 | 0.07 | 55 | 1010.2 |
| 20260903012240 | 63 | 260 | 8.0 | 13.0 | 0.00 | 0.07 | 0.07 | 54 | 1010.2 |
| 20260903011734 | 63 | 252 | 9.0 | 14.0 | 0.00 | 0.07 | 0.07 | 54 | 1010.5 |
| 20260903011233 | 63 | 251 | 7.0 | 11.0 | 0.00 | 0.07 | 0.07 | 56 | 1010.6 |
| 20260903010729 | 63 | 218 | 11.0 | 17.0 | 0.00 | 0.07 | 0.07 | 55 | 1010.7 |
| 20260903010229 | 63 | 198 | 11.0 | 16.0 | 0.00 | 0.07 | 0.07 | 54 | 1010.6 |
| 20260903005728 | 62 | 180 | 9.0 | 11.0 | 0.00 | 0.07 | 0.07 | 61 | 1010.6 |
| 20260903005223 | 62 | 111 | 4.0 | 6.0 | 0.00 | 0.07 | 0.07 | 62 | 1010.6 |
| 20260903004719 | 62 | 155 | 6.0 | 8.0 | 0.00 | 0.07 | 0.07 | 58 | 1010.6 |
| 20260903003552 | 63 | 190 | 0.0 | 0.0 | 0.00 | 0.07 | 0.07 | 61 | 1010.0 |
| 20260903003047 | 63 | 190 | 0.0 | 0.0 | 0.00 | 0.07 | 0.07 | 61 | 1010.0 |
| 20260903002542 | 63 | 273 | 0.0 | 0.0 | 0.00 | 0.07 | 0.07 | 59 | 1009.7 |
| 20260903002036 | 63 | 353 | 6.0 | 8.0 | 0.00 | 0.07 | 0.07 | 58 | 1009.3 |
| 20260903001531 | 63 | 312 | 7.0 | 10.0 | 0.00 | 0.07 | 0.07 | 60 | 1009.0 |
| 20260903001031 | 64 | 325 | 3.0 | 4.0 | 0.00 | 0.07 | 0.07 | 57 | 1009.7 |
| 20260903000527 | 64 | 338 | 3.0 | 4.0 | 0.00 | 0.07 | 0.07 | 53 | 1009.4 |
| 20260903000025 | 65 | 337 | 6.0 | 7.0 | 0.00 | 0.07 | 0.07 | 51 | 1009.3 |
| 20260902235519 | 65 | 313 | 4.0 | 7.0 | 0.00 | 0.07 | 0.07 | 49 | 1010.0 |
| 20260902235015 | 65 | 264 | 7.0 | 8.0 | 0.00 | 0.07 | 0.07 | 49 | 1010.2 |